Location: Pine Mountain Observatory
(43.7910°N, 120.9377°W)
Time: 16:06:20
(UTC-07:00)

Cosmos 1867 - Visible Passes

Search period start: 22 October 2014 00:00
Search period end: 01 November 2014 00:00
Orbit: 778 x 798 km, 65.0° (Epoch: 22 October)

Date Brightness Start Highest point End Pass type
(mag) Time Alt. Az. Time Alt. Az. Time Alt. Az.
22 Oct 5.5 03:56:34 26° ENE 03:56:34 26° ENE 03:59:21 10° NE visible
22 Oct 4.1 05:37:16 37° WNW 05:37:58 39° NW 05:43:04 10° NNE visible
23 Oct 6.2 03:26:22 15° ENE 03:26:22 15° ENE 03:27:28 10° NE visible
23 Oct 4.1 05:07:04 46° NNW 05:07:04 46° NNW 05:11:34 10° NNE visible
23 Oct 5.5 06:48:29 10° WNW 06:51:11 14° NNW 06:53:53 10° N visible
24 Oct 4.7 04:36:48 36° NNE 04:36:48 36° NNE 04:40:02 10° NNE visible
24 Oct 5.3 06:17:29 14° NW 06:19:16 16° NNW 06:22:38 10° N visible
25 Oct 5.5 04:06:27 23° NNE 04:06:27 23° NNE 04:08:28 10° NNE visible
25 Oct 5.1 05:47:08 20° NW 05:47:23 20° NW 05:51:18 10° N visible
26 Oct 6.2 03:36:03 14° NE 03:36:03 14° NE 03:36:51 10° NE visible
26 Oct 5.1 05:16:44 22° NNW 05:16:44 22° NNW 05:19:55 10° NNE visible
27 Oct 5.4 04:46:17 21° N 04:46:17 21° N 04:48:29 10° NNE visible
28 Oct 5.9 04:15:47 16° NNE 04:15:47 16° NNE 04:17:02 10° NNE visible
28 Oct 5.7 05:56:28 11° NNW 05:57:13 11° NNW 05:58:48 10° N visible
29 Oct 6.3 03:45:15 11° NNE 03:45:15 11° NNE 03:45:33 10° NNE visible
29 Oct 5.7 05:25:56 13° NNW 05:25:56 13° NNW 05:27:47 10° N visible
30 Oct 5.8 04:55:22 13° N 04:55:22 13° N 04:56:33 10° N visible
31 Oct 6.1 04:24:48 11° N 04:24:48 11° N 04:25:14 10° N visible
